Content
SEND FEEDBACK

Daily
Averages
Monthly
Summary
United States of America

PUT IN BAY, OHIO


Home > North America > United States > Ohio
Elevation: 561 feet     Latitude: 41 39N     Longitude: 082 48W

WEATHER
 
SELECT A DAY
Number of Records: 124,968;   Date Range: 12/10/00 - 10/30/14
 
SHARE

PRINT THIS DATA

[ ← Previous Day ]
WEATHER ALMANAC - FEBRUARY 20, 2013
[ Next Day → ]
[ °C ]   °F
Weather ElementAverageHighLow
Temperature20.6 °F22.6 °F (10:00 pm)17.6 °F (7:00 am)
Dewpoint9.1 °F14.2 °F (11:00 pm)4 °F (7:00 am)
Humidity59.7 %77 % (2:00 am)40 % (7:00 am)
Barometer30.14 in30.25 in (10:00 pm)29.98 in (1:00 am)
Wind Speed11.3 mph16.1 mph (1:00 am)
Wind Gust25.3 mph (6:00 am)
Weather ElementAverage
Wind DirectionWNW (292.8 °)

Weather ElementTotal
Precipitation---
Heating Degree Days44.9 (Base 65)
Averaged from 25 records on February 20, 2013
WEATHER CONDITIONS BREAKOUT
WIND DIRECTION BREAKOUT
WEATHER BY HOUR - FEBRUARY 20, 2013
[ °C ]   °F
Local TimeTemperatureDewpointHumidityBarometerVisibilityWind DirectionWind SpeedGust SpeedPrecipitationEventsConditions
1:00 AM19.0 °F12.0 °F64 %29.98 inWest (270°)16.1 mph
1:00 AM19.2 °F12.0 °F74 %29.98 inWest (270°)16.1 mph23.0 mph
2:00 AM19.4 °F13.3 °F77 %29.99 inWest (270°)16.1 mph23.0 mph
3:00 AM19.4 °F12.2 °F74 %30.00 inWest (280°)13.8 mph21.9 mph
5:00 AM19.0 °F9.1 °F65 %30.03 inWest (280°)16.1 mph24.2 mph
6:00 AM18.3 °F6.6 °F60 %30.06 inWNW (300°)15.0 mph25.3 mph
7:00 AM17.6 °F4.1 °F56 %30.09 inWNW (290°)11.5 mph23.0 mph
7:00 AM18.0 °F4.0 °F40 %30.09 inWNW (290°)11.5 mph
8:00 AM18.0 °F5.5 °F58 %30.11 inWNW (290°)13.8 mph21.9 mph
9:00 AM18.5 °F7.3 °F62 %30.11 inWNW (290°)13.8 mph21.9 mph
10:00 AM19.9 °F6.4 °F56 %30.12 inWNW (300°)12.7 mph19.6 mph
11:00 AM19.9 °F5.9 °F55 %30.14 inNW (320°)10.4 mph18.4 mph
12:00 PM21.6 °F7.2 °F54 %30.15 inNW (310°)11.5 mph20.7 mph
1:00 PM22.0 °F8.0 °F41 %30.17 inNW (310°)9.2 mph
1:00 PM21.6 °F8.1 °F56 %30.17 inNW (310°)9.2 mph
2:00 PM21.9 °F7.7 °F54 %30.17 inWNW (290°)11.5 mph18.4 mph
3:00 PM21.9 °F7.5 °F54 %30.18 inWNW (300°)10.4 mph
4:00 PM22.5 °F9.5 °F58 %30.20 inWest (280°)9.2 mph
5:00 PM22.3 °F9.1 °F57 %30.24 inWest (280°)11.5 mph19.6 mph
7:00 PM21.9 °F10.9 °F63 %30.23 inWNW (290°)8.1 mph
7:00 PM22.0 °F11.0 °F49 %30.23 inWNW (290°)8.1 mph
8:00 PM22.3 °F11.5 °F63 %30.24 inWNW (300°)8.1 mph
9:00 PM22.5 °F12.4 °F65 %30.24 inWNW (300°)8.1 mph
10:00 PM22.6 °F12.7 °F66 %30.25 inWNW (300°)6.9 mph
11:00 PM22.5 °F14.2 °F71 %30.25 inNW (310°)4.6 mph
Hourly data recorded from CXHA, located miles away from Put In Bay, Ohio







STORIES FROM OUR PARTNERS